GOMX4-A (43197 NORAD) Tracking and Keplerian Element Data.

This shows tracking and keplerian element data for the satellite.

Feedback or suggestion? Click here.

Epoch Orbit724
Epoch Day80.87955142
Epoch Year2018
Argument of Perigee103.8861
Mean Anonmoly14.8694
Mean Motion15.2355637
Decay Rate1.531E-05
L11 43197U 18015F 18080.87955142 .00001531 00000-0 66613-4 0 9993
L22 43197 97.3313 211.6915 0021075 103.8861 14.8694 15.23556370 7241

Live tracking and technical data element details for GOMX4-A (NORAD 43197). GOMX4-A can be tracked NOW for your location showing map with azimuth and elevation plus other details from your city location.

Tracking and technical details about the satellite: track the satellite on the map from your city or location and see movement details for azimuth, elevation, latitude, longitude, range, height, and movement on the map or in text.

Es'hailsat 2 (coming in 2018)

IsCatalogInMostPopularTable: catalog: 43197, numindb: 21
Update: records affected: 1

GetName: 43197 GOMX4-A

Hit Count: updated at: Thu, 22 Mar 2018 13:48:08 GMT